#timestamp,LO_Frequency,Hit,StdDev 
1456185615.2,286046990.1,N
1456185635.0,286046991.1,N
1456185635.9,286046991.1,N
1456185655.8,286046993.2,N
1456185675.6,286046992.2,N
1456185695.4,286046993.4,N
1456185715.3,286046995.8,N
1456185735.1,286046997.2,N
1456185755.8,286046996.2,N
1456185775.7,286046996.1,N
1456185795.5,286046999.1,N
1456185815.3,286047000.3,N
1456185835.2,286047003.1,N
1456185855.9,286047005.8,N
1456185875.7,286047003.9,N
1456185895.6,286047002.9,N
1456185915.4,286047007.5,N
1456185935.2,286047005.5,N
1456185955.0,286047004.0,N
1456185956.0,286047004.0,N
1456185975.8,286047003.8,N
1456185995.6,286047006.8,N
1456186015.4,286047006.2,N
1456186035.3,286047009.8,N
1456186055.1,286047009.8,N
1456186075.8,286047008.6,N
1456186095.7,286047010.3,N
1456186115.5,286047007.9,N
1456186135.3,286047006.4,N
1456186155.2,286047006.3,N
1456186175.9,286047007.4,N
1456186195.7,286047005.5,N
1456186215.6,286047005.3,N
1456186235.4,286047005.4,N
1456186255.2,286047001.7,N
1456186275.1,286047004.1,N
1456186276.0,286047004.1,N
1456186295.8,286047007.6,N
1456186315.6,286047004.3,N
1456186335.5,286047002.8,N
1456186355.3,286047001.4,N
1456186375.1,286047002.7,N
1456186395.8,286047003.7,N
1456186415.7,286047005.9,N
1456186435.5,286047002.9,N
1456186455.3,286047003.2,N
1456186475.2,286047001.7,N
1456186495.9,286047002.5,N
1456186515.7,286047001.7,N
1456186535.6,286047005.8,N
1456186555.4,286046999.8,N
1456186575.2,286046999.8,N
1456186595.1,286047001.1,N
1456186596.0,286047001.1,N
1456186615.8,286046998.1,N
1456186635.6,286046999.8,N
1456186655.5,286047003.6,N
1456186675.3,286047004.5,N
1456186695.1,286047006.9,N
1456186715.9,286047009.0,Y
1456186735.7,286047006.8,P
1456186755.5,286047003.0,N
1456186775.4,286047004.1,N
1456186795.2,286047003.5,N
1456186815.0,286047001.5,N
1456186815.9,286047001.5,N
1456186835.7,286047004.4,N
1456186855.6,286047001.4,N
1456186875.4,286047005.3,Y
1456186895.2,286046998.2,P
1456186915.1,286046996.5,N
1456186916.0,286046996.5,N
1456186935.8,286046999.2,N
1456186955.6,286047004.2,N
1456186975.5,286047004.9,N
1456186995.3,286047003.0,N
1456187015.1,286047003.4,N
1456187035.9,286047003.0,N
1456187055.7,286047003.5,N
1456187075.5,286047001.6,N
1456187095.4,286047002.6,N
1456187115.2,286046999.9,N
1456187135.0,286046999.8,N
1456187135.9,286046999.8,N
1456187155.8,286047002.6,N
1456187175.6,286047002.4,N
1456187195.4,286046999.7,N
1456187215.3,286047000.4,N
1456187235.1,286047000.4,N
1456187236.0,286047000.4,N
1456187255.8,286046999.1,N
1456187275.6,286046995.6,N
1456187295.5,286046998.7,N
1456187315.3,286047002.5,N
1456187335.1,286047002.8,N
1456187355.9,286047003.2,N
1456187375.7,286047000.3,N
1456187395.5,286046998.6,N
1456187415.4,286047000.5,N
1456187435.2,286047001.2,N
1456187455.0,286046998.6,N
1456187455.9,286046998.6,N
1456187475.8,286046999.1,N
1456187495.6,286047000.7,N
1456187515.4,286047000.9,N
1456187535.3,286047000.4,N
1456187555.1,286047001.0,N
1456187556.0,286047001.0,N
1456187575.8,286047001.1,N
1456187595.7,286046998.7,N
1456187615.5,286046999.6,N
1456187635.3,286047000.8,N
1456187655.1,286047001.0,N
1456187675.9,286046997.8,N
1456187695.7,286046993.5,Y
1456187715.5,286046995.9,P
1456187735.4,286046994.3,N
1456187755.2,286046993.1,N
1456187775.0,286046992.7,N
1456187775.9,286046992.7,N
1456187795.8,286046993.9,N
1456187815.6,286046994.0,N
1456187835.4,286046997.7,N
1456187855.3,286046994.1,N
1456187875.1,286046996.0,N
1456187876.0,286046996.0,N
1456187895.8,286046993.4,Y
1456187915.7,286047000.9,P
1456187935.5,286047004.1,N
1456187955.3,286046998.6,N
1456187975.2,286046996.6,N
1456187995.9,286046996.1,N
1456188015.7,286046999.2,N
1456188035.6,286046999.0,N
1456188055.4,286046999.3,N
1456188075.2,286046998.4,N
1456188095.0,286046999.6,N
1456188096.0,286046999.6,N
1456188115.8,286046996.6,N
1456188135.6,286046999.4,N
1456188155.4,286046998.8,N
1456188175.3,286047003.0,N
1456188195.1,286047000.5,N
1456188215.8,286047000.6,N
1456188235.7,286046998.5,N
1456188255.5,286047002.7,N
1456188275.3,286047000.1,N
1456188295.2,286046998.2,N
1456188315.9,286046997.1,N
1456188335.7,286046999.0,N
1456188355.6,286046999.0,N
1456188375.4,286046999.3,N
1456188395.2,286047000.7,N
1456188415.0,286046996.9,N
1456188416.0,286046996.9,N
1456188435.8,286046996.5,N
1456188455.6,286047000.6,N
1456188475.4,286047001.0,N
1456188495.3,286047006.0,Y
1456188515.1,286047002.8,P
1456188535.8,286046999.9,N
1456188555.7,286047004.3,N
1456188575.5,286047004.3,N
1456188595.3,286047001.9,N
1456188615.2,286047001.4,N
1456188635.9,286047000.3,N
1456188655.7,286047005.9,Y
1456188675.6,286047006.4,P
1456188695.4,286047004.8,N
1456188715.2,286047002.6,N
1456188735.1,286047004.1,N
1456188736.0,286047004.1,N
1456188755.8,286047003.4,N
1456188775.6,286047005.0,Y
1456188795.5,286046999.2,P
1456188815.3,286046993.8,N
1456188835.1,286046995.1,N
1456188855.9,286046997.7,N
1456188875.7,286046995.3,N
1456188895.5,286046993.7,N
1456188915.4,286046992.3,N
1456188935.2,286046994.1,N
1456188955.0,286046997.2,N
1456188955.9,286046997.2,N
1456188975.7,286047000.0,N
1456188995.6,286047004.4,N
1456189015.4,286047004.6,N
1456189035.2,286047003.5,N
1456189055.1,286047001.8,N
1456189056.0,286047001.8,N
1456189075.8,286047000.9,N
1456189095.6,286046998.2,N
1456189115.5,286047001.5,N
1456189135.3,286047000.4,N
1456189155.1,286047003.7,N
1456189175.9,286047002.8,N
1456189195.7,286046999.7,N
